This is the latest recevied weather packets stored in our database for station/object KD2PO-13. If no packets are shown the sender has not sent any weather packets the latest 10 day(s).
| Time | Temp. | Humidity | Pressure | Rain* | Wind** | Luminosity | Snow |
|---|---|---|---|---|---|---|---|
| 1777651041 | 9.44° C | 57% | 0 hPa | 0 mm | - | - | - |
| 1777650741 | 9.44° C | 58% | 0 hPa | 0 mm | - | - | - |
| 1777650140 | 9.44° C | 57% | 0 hPa | 0 mm | - | - | - |
| 1777649540 | 9.44° C | 59% | 0 hPa | 0 mm | - | - | - |
| 1777649242 | 9.44° C | 61% | 0 hPa | 0 mm | - | - | - |
| 1777648941 | 8.89° C | 60% | 0 hPa | 0 mm | - | - | - |
| 1777648642 | 8.89° C | 62% | 0 hPa | 0 mm | - | - | - |
| 1777648341 | 8.89° C | 62% | 0 hPa | 0 mm | - | - | - |
| 1777648041 | 8.89° C | 63% | 0 hPa | 0 mm | - | - | - |
| 1777647741 | 8.89° C | 61% | 0 hPa | 0 mm | - | - | - |
| 1777647441 | 8.89° C | 64% | 0 hPa | 0 mm | - | - | - |
| 1777647140 | 8.89° C | 60% | 0 hPa | 0 mm | - | - | - |
| 1777646540 | 8.89° C | 66% | 0 hPa | 0 mm | - | - | - |
| 1777646240 | 8.89° C | 66% | 0 hPa | 0 mm | - | - | - |
| 1777645940 | 8.89° C | 66% | 0 hPa | 0 mm | - | - | - |
| 1777645641 | 8.89° C | 69% | 0 hPa | 0 mm | - | - | - |
| 1777645341 | 8.33° C | 70% | 0 hPa | 0 mm | - | - | - |
| 1777645041 | 8.33° C | 73% | 0 hPa | 0 mm | - | - | - |
| 1777644741 | 7.78° C | 71% | 0 hPa | 0 mm | - | - | - |
| 1777644441 | 7.78° C | 70% | 0 hPa | 0 mm | - | - | - |
| 1777644140 | 8.33° C | 71% | 0 hPa | 0 mm | - | - | - |
| 1777643841 | 8.33° C | 67% | 0 hPa | 0 mm | - | - | - |
| 1777643540 | 8.33° C | 73% | 0 hPa | 0 mm | - | - | - |
| 1777643239 | 7.22° C | 75% | 0 hPa | 0 mm | - | - | - |
| 1777642941 | 7.22° C | 74% | 0 hPa | 0 mm | - | - | - |
* Rain latest hour (hover to see other rain measurements)
** Current wind speed in m/s (hover to see current wind gust speed)